QPF
0.00 0.00 0.00 0.00 0.00 0.00 0.00 0.00 0.00 0.00 0.00 0.00 0.00 0.00 0.00 0.00 0.00 0.00 0.00 0.00 0.00 0.00 0.00 0.00 0.00 0.00 0.00 0.00 0.00 0.00 0.00 0.00 0.00 0.00 0.00 0.00 0.00 0.00
0.00 0.00 0.00 0.00 0.00 0.00 0.00 0.00 0.00 0.00 0.00 0.00 0.00 0.00 0.00 0.00 0.00 0.00 0.00 0.00 0.00 0.00 0.00 0.00 0.00 0.00 0.00 0.00 0.00 0.00 0.00 0.00 0.00 0.00 0.00 0.00 0.00 0.02
0.01 0.02 0.03 0.01 0.00 0.00 0.00 0.00 0.00 0.00 0.00 0.00 0.00 0.00 0.00 0.00 0.00 0.00 0.00 0.00 0.00 0.00 0.00 0.00 0.00 0.00 0.00 0.00 0.00 0.00 0.00 0.00 0.00 0.00 0.00 0.00 0.00 0.01
0.12 0.08 0.02 0.00 0.00 0.00 0.00 0.00 0.00 0.00 0.00 0.00 0.00 0.00 0.00 0.00 0.00 0.00 0.00 0.00 0.00 0.00 0.00 0.00 0.00 0.00 0.00 0.00 0.00 0.00 0.00 0.00 0.00 0.00 0.00 0.00 0.00 0.00
0.03 0.00 0.00 0.00 0.00 0.00 0.00 0.00 0.00 0.00 0.00 0.00 0.00 0.00 0.00 0.00 0.00 0.00 0.00 0.00 0.00 0.00 0.00 0.00 0.00 0.00 0.00 0.00 0.00 0.00 0.00 0.00 0.00 0.00 0.00 0.00 0.00 0.00
0.00 0.00 0.00 0.00 0.00 0.00 0.00 0.00 0.00 0.00 0.00 0.00 0.00 0.00 0.00 0.00 0.00 0.00 0.00 0.00 0.00 0.00 0.00 0.00 0.00 0.00 0.00 0.00 0.00 0.00 0.00 0.00 0.00 0.00 0.00 0.00 0.00 0.00
0.00 0.00 0.00 0.00 0.00 0.00 0.00 0.00 0.00 0.00 0.00 0.00 0.00 0.00 0.00 0.00 0.00 0.00 0.00 0.00 0.00 0.00 0.00 0.00 0.00 0.00 0.00 0.00 0.00 0.00 0.00 0.00 0.00 0.00 0.00 0.00 0.00 0.00
0.00 0.00 0.00 0.00 0.00 0.00 0.00 0.00 0.00 0.00 0.00 0.00 0.00 0.00 0.00 0.00 0.00 0.00 0.00 0.00 0.00 0.00 0.00 0.00 0.00 0.00 0.00 0.00 0.00 0.00 0.00 0.00 0.00 0.00 0.00 0.00 0.00 0.00
0.00 0.00 0.00 0.00 0.00 0.00 0.00 0.00 0.00 0.00 0.00 0.00 0.00 0.00 0.00 0.00 0.01 0.00 0.00 0.00 0.00 0.00 0.00 0.00 0.00 0.00 0.00 0.00 0.00 0.00 0.00 0.00 0.00 0.00 0.00 0.00 0.00 0.00
0.00 0.00 0.00 0.00 0.00 0.00 0.00 0.00 0.00 0.00 0.00 0.01 0.01 0.00 0.00 0.00 0.01 0.00 0.00 0.00 0.00 0.00 0.00 0.00 0.00 0.00 0.00 0.00 0.00 0.00 0.00 0.00 0.00 0.00 0.00 0.00 0.00 0.00
0.00 0.00 0.00 0.00 0.00 0.00 0.00 0.00 0.00 0.00 0.00 0.02 0.02 0.02 0.01 0.00 0.00 0.00 0.00 0.00 0.00 0.00 0.00 0.00 0.00 0.00 0.00 0.00 0.00 0.00 0.00 0.00 0.00 0.00 0.00 0.00 0.00 0.00
0.00 0.00 0.00 0.00 0.00 0.00 0.00 0.00 0.01 0.00 0.00 0.01 0.03 0.03 0.01 0.01 0.01 0.01 0.00 0.02 0.02 0.00 0.00 0.00 0.00 0.00 0.00 0.00 0.00 0.00 0.00 0.00 0.00 0.00 0.00 0.00 0.01 0.00
0.00 0.00 0.00 0.00 0.00 0.00 0.00 0.01 0.02 0.01 0.02 0.02 0.02 0.04 0.02 0.01 0.00 0.00 0.00 0.00 0.00 0.00 0.00 0.00 0.00 0.00 0.00 0.00 0.00 0.00 0.00 0.00 0.00 0.00 0.00 0.01 0.01 0.00
0.00 0.00 0.00 0.00 0.00 0.00 0.00 0.00 0.00 0.01 0.02 0.02 0.01 0.01 0.02 0.01 0.00 0.00 0.00 0.00 0.00 0.00 0.00 0.00 0.00 0.00 0.00 0.00 0.00 0.00 0.00 0.00 0.00 0.00 0.00 0.00 0.00 0.00
0.00 0.00 0.00 0.00 0.00 0.00 0.00 0.00 0.00 0.00 0.01 0.02 0.03 0.02 0.02 0.03 0.03 0.03 0.01 0.01 0.01 0.00 0.00 0.00 0.00 0.00 0.00 0.00 0.00 0.00 0.00 0.00 0.00 0.00 0.00 0.00 0.00 0.04
0.00 0.00 0.00 0.00 0.00 0.00 0.00 0.00 0.00 0.00 0.00 0.01 0.02 0.01 0.01 0.01 0.01 0.01 0.02 0.02 0.03 0.01 0.00 0.00 0.00 0.00 0.00 0.00 0.00 0.00 0.00 0.00 0.00 0.01 0.00 0.00 0.03 0.06
0.00 0.00 0.00 0.00 0.00 0.00 0.00 0.00 0.01 0.01 0.01 0.01 0.02 0.02 0.01 0.01 0.01 0.01 0.01 0.02 0.02 0.00 0.00 0.00 0.00 0.00 0.00 0.00 0.00 0.00 0.00 0.00 0.01 0.00 0.00 0.00 0.09 0.02
0.00 0.00 0.00 0.00 0.00 0.00 0.00 0.00 0.01 0.02 0.05 0.10 0.07 0.02 0.01 0.01 0.02 0.02 0.02 0.02 0.01 0.00 0.00 0.00 0.00 0.00 0.00 0.00 0.00 0.00 0.01 0.01 0.00 0.00 0.00 0.02 0.07 0.03
0.00 0.00 0.00 0.00 0.00 0.00 0.00 0.00 0.01 0.06 0.09 0.07 0.04 0.00 0.01 0.01 0.02 0.03 0.03 0.02 0.01 0.00 0.00 0.00 0.00 0.00 0.00 0.00 0.00 0.00 0.00 0.00 0.00 0.00 0.00 0.00 0.05 0.04
0.00 0.00 0.00 0.00 0.00 0.00 0.00 0.00 0.00 0.02 0.08 0.10 0.10 0.05 0.01 0.01 0.02 0.03 0.02 0.02 0.01 0.00 0.00 0.00 0.00 0.00 0.00 0.00 0.00 0.00 0.00 0.00 0.00 0.00 0.00 0.00 0.07 0.05
0.00 0.00 0.00 0.00 0.00 0.00 0.01 0.00 0.00 0.02 0.06 0.10 0.10 0.07 0.04 0.02 0.01 0.02 0.04 0.03 0.02 0.02 0.00 0.00 0.00 0.00 0.00 0.00 0.00 0.00 0.01 0.01 0.00 0.00 0.00 0.00 0.02 0.02
0.00 0.00 0.00 0.00 0.00 0.00 0.01 0.00 0.00 0.01 0.02 0.04 0.08 0.09 0.06 0.05 0.02 0.02 0.04 0.04 0.02 0.01 0.00 0.00 0.00 0.00 0.00 0.00 0.00 0.00 0.05 0.06 0.00 0.00 0.00 0.00 0.00 0.00
0.00 0.00 0.00 0.00 0.00 0.01 0.01 0.00 0.00 0.00 0.01 0.02 0.04 0.06 0.07 0.05 0.02 0.02 0.05 0.05 0.03 0.01 0.00 0.00 0.00 0.00 0.00 0.00 0.00 0.00 0.01 0.01 0.02 0.01 0.00 0.00 0.00 0.00
MSLP
1023.51 1023.43 1023.48 1023.57 1023.94 1024.03 1024.06 1024.14 1024.31 1024.36 1024.12 1023.99 1023.80 1023.34 1023.33 1023.42 1023.51 1023.74 1024.01 1024.22 1024.77 1025.09 1025.27 1025.32 1025.33 1025.43 1025.61 1025.70 1025.65 1025.43 1025.23 1024.90 1024.57 1024.16 1023.71 1023.19 1022.82 1022.48
1023.55 1023.68 1024.08 1024.35 1023.82 1023.62 1023.56 1023.61 1023.83 1024.04 1023.98 1023.81 1023.53 1023.26 1022.90 1022.77 1022.86 1023.16 1023.43 1023.64 1023.98 1024.25 1024.36 1024.43 1024.55 1024.75 1024.87 1024.95 1024.92 1024.78 1024.57 1024.35 1024.06 1023.73 1023.34 1022.88 1022.67 1022.34
1023.76 1024.09 1024.24 1024.37 1024.06 1023.46 1023.34 1023.23 1023.43 1023.45 1023.50 1023.27 1022.94 1022.71 1022.57 1022.63 1022.50 1022.67 1022.72 1022.99 1023.09 1023.30 1023.48 1023.65 1023.82 1023.94 1024.00 1024.19 1024.15 1024.04 1023.84 1023.61 1023.45 1023.28 1022.93 1022.55 1022.18 1021.92
1023.21 1023.77 1024.09 1023.88 1023.64 1023.17 1023.01 1022.98 1022.95 1022.98 1023.06 1022.91 1022.60 1022.41 1022.20 1021.99 1021.96 1022.14 1022.05 1022.03 1022.29 1022.38 1022.61 1022.82 1022.85 1022.94 1023.23 1023.34 1023.26 1023.14 1022.96 1022.81 1022.77 1022.71 1022.51 1022.28 1021.93 1021.47
1023.25 1023.58 1023.65 1023.63 1023.23 1022.85 1022.66 1022.50 1022.55 1022.39 1022.27 1022.12 1021.96 1021.61 1021.42 1021.37 1021.40 1021.30 1021.40 1021.57 1021.54 1021.61 1021.72 1021.86 1022.04 1022.32 1022.40 1022.25 1022.29 1022.17 1021.92 1021.85 1021.82 1021.88 1021.78 1021.56 1021.32 1021.04
1022.91 1023.15 1023.33 1023.16 1022.76 1022.45 1022.25 1022.09 1021.91 1021.87 1021.71 1021.49 1021.38 1021.03 1021.00 1020.73 1020.73 1020.90 1021.13 1020.98 1021.01 1020.84 1021.14 1021.29 1021.32 1021.36 1021.28 1021.38 1021.40 1021.14 1020.78 1020.70 1020.92 1020.96 1020.82 1020.65 1020.49 1020.28
1022.66 1022.93 1022.89 1022.56 1022.19 1021.92 1021.75 1021.56 1021.48 1021.42 1021.32 1021.25 1020.99 1020.61 1020.41 1020.42 1020.53 1020.36 1020.56 1020.70 1020.73 1020.77 1020.94 1021.02 1021.04 1021.01 1020.91 1020.68 1020.43 1019.97 1019.65 1019.68 1019.91 1019.98 1019.99 1019.84 1019.65 1019.42
1022.77 1022.74 1022.48 1021.97 1021.56 1021.08 1020.84 1020.65 1020.63 1020.57 1020.47 1020.54 1020.14 1020.20 1019.91 1019.85 1019.95 1019.96 1020.04 1020.47 1020.70 1020.26 1020.40 1020.60 1020.64 1020.67 1020.45 1020.18 1019.71 1019.51 1019.46 1019.42 1019.31 1019.23 1019.13 1018.95 1018.77 1018.53
1022.76 1022.53 1022.11 1021.51 1021.14 1020.75 1020.45 1020.14 1019.83 1019.66 1019.53 1019.33 1019.40 1019.18 1019.08 1018.98 1019.26 1019.44 1019.71 1019.78 1019.87 1019.75 1020.03 1020.32 1020.37 1020.12 1019.78 1019.19 1019.12 1018.98 1018.85 1018.82 1018.61 1018.43 1018.35 1018.12 1017.85 1017.54
1021.91 1021.64 1021.41 1021.12 1020.88 1020.61 1020.24 1019.84 1019.39 1019.05 1018.74 1018.66 1018.63 1018.38 1018.17 1018.06 1018.35 1018.42 1018.76 1019.13 1019.42 1019.25 1019.55 1020.04 1019.81 1019.57 1019.06 1018.76 1018.56 1018.45 1018.29 1018.24 1018.06 1017.83 1017.55 1017.23 1016.91 1016.48
1021.79 1021.63 1021.40 1021.22 1021.00 1020.92 1020.54 1020.08 1019.18 1018.32 1017.94 1017.65 1017.25 1016.97 1016.97 1017.01 1017.36 1017.77 1018.22 1018.88 1019.09 1018.97 1019.12 1019.27 1019.21 1019.04 1018.73 1018.61 1018.34 1017.97 1017.90 1017.71 1017.55 1017.21 1016.81 1016.35 1015.84 1015.34
1022.20 1021.92 1021.74 1021.51 1021.11 1020.95 1020.78 1020.34 1019.49 1018.87 1018.34 1017.92 1017.33 1016.70 1016.48 1016.87 1017.04 1017.48 1017.73 1018.25 1018.89 1018.82 1018.17 1018.60 1018.75 1018.75 1018.56 1018.19 1018.06 1017.78 1017.60 1017.34 1016.86 1016.46 1015.98 1015.43 1014.99 1014.62
1022.27 1021.94 1021.76 1021.68 1021.31 1020.91 1020.49 1019.95 1019.17 1018.56 1018.06 1017.65 1017.01 1016.73 1016.13 1016.16 1016.33 1016.59 1016.83 1017.28 1017.75 1017.76 1017.42 1017.77 1018.02 1018.29 1018.53 1018.24 1017.82 1017.80 1017.36 1016.85 1016.42 1015.83 1015.25 1014.79 1014.37 1013.97
1022.32 1021.98 1021.64 1021.44 1020.95 1020.27 1019.72 1018.93 1018.29 1017.87 1017.53 1017.03 1016.49 1015.91 1015.65 1015.52 1015.46 1015.58 1015.84 1016.21 1016.57 1016.90 1016.86 1017.04 1017.47 1017.74 1017.97 1018.04 1017.74 1017.33 1017.04 1016.39 1015.84 1015.41 1014.87 1014.32 1013.88 1013.39
1022.26 1021.84 1021.49 1020.94 1020.30 1019.49 1018.75 1018.11 1017.53 1017.12 1016.64 1016.18 1015.59 1015.11 1014.82 1014.80 1014.74 1014.88 1014.97 1015.18 1015.78 1016.14 1016.21 1016.34 1016.67 1016.92 1017.35 1017.50 1017.24 1016.93 1016.55 1016.00 1015.31 1014.96 1014.63 1014.14 1013.64 1013.16
1022.31 1021.96 1021.29 1020.66 1019.95 1019.41 1018.48 1017.92 1017.48 1016.84 1015.99 1015.19 1014.66 1014.38 1014.19 1014.22 1014.26 1014.46 1014.74 1015.14 1015.42 1015.70 1015.58 1015.60 1015.92 1016.26 1016.67 1016.71 1016.62 1016.34 1016.10 1015.87 1015.05 1014.60 1014.21 1013.65 1013.18 1013.18
1022.24 1021.65 1020.78 1020.25 1020.02 1019.59 1019.07 1018.43 1017.73 1017.10 1016.19 1014.71 1013.92 1013.83 1013.77 1013.84 1013.81 1014.01 1014.24 1014.50 1014.81 1014.98 1015.15 1015.21 1015.25 1015.37 1015.62 1015.79 1015.91 1015.62 1015.41 1015.11 1014.71 1014.38 1013.99 1013.52 1012.86 1012.87
1021.95 1021.35 1020.92 1020.77 1020.54 1020.13 1019.65 1018.96 1018.25 1017.42 1016.36 1015.59 1013.35 1013.36 1013.26 1013.30 1013.32 1013.53 1013.70 1013.88 1014.19 1014.51 1014.75 1015.03 1014.99 1014.96 1015.07 1014.89 1014.73 1014.80 1014.76 1014.66 1014.30 1014.09 1013.90 1013.43 1012.83 1012.60
1021.64 1021.32 1021.20 1021.02 1020.75 1020.44 1020.11 1019.63 1018.79 1018.08 1017.22 1015.91 1014.44 1013.35 1013.14 1012.95 1012.94 1013.04 1013.20 1013.38 1013.66 1013.97 1014.28 1014.63 1014.52 1014.80 1015.12 1014.95 1014.35 1014.08 1014.43 1014.42 1014.15 1014.02 1013.72 1013.30 1012.71 1012.17
1021.78 1021.64 1021.55 1021.41 1021.17 1020.83 1020.37 1019.80 1019.11 1018.41 1017.53 1016.62 1015.18 1013.32 1012.78 1012.72 1012.69 1012.74 1012.75 1012.84 1013.07 1013.38 1013.72 1013.98 1013.92 1014.06 1014.35 1014.61 1014.73 1014.10 1013.70 1013.92 1014.11 1013.90 1013.50 1012.89 1012.31 1011.99
1022.19 1022.09 1021.95 1021.77 1021.52 1021.24 1020.83 1020.22 1019.39 1018.82 1018.07 1017.12 1016.04 1014.69 1013.14 1012.48 1012.44 1012.38 1012.30 1012.25 1012.50 1012.70 1013.15 1013.36 1013.26 1013.28 1013.67 1013.95 1014.44 1014.04 1013.35 1013.09 1013.44 1013.60 1013.50 1013.13 1012.58 1012.20
1022.47 1022.41 1022.19 1021.98 1021.73 1021.38 1020.85 1020.43 1019.60 1019.00 1018.44 1017.54 1016.67 1015.69 1014.48 1013.28 1012.26 1012.22 1012.07 1011.80 1011.77 1012.13 1012.56 1012.80 1012.83 1013.04 1013.48 1013.85 1014.00 1014.03 1013.29 1013.05 1013.14 1013.29 1013.28 1013.12 1012.89 1012.85
1022.73 1022.60 1022.41 1022.11 1021.81 1021.51 1021.09 1020.63 1019.98 1019.38 1018.81 1017.96 1017.16 1016.27 1015.62 1014.62 1013.44 1012.37 1011.89 1011.41 1011.33 1011.76 1012.06 1012.40 1012.58 1012.65 1013.05 1013.27 1013.44 1013.49 1013.18 1013.10 1012.92 1013.09 1012.98 1012.61 1012.56 1012.44
Thickness
5511 5506 5498 5489 5479 5471 5464 5456 5447 5438 5438 5433 5423 5415 5406 5395 5390 5382 5372 5361 5349 5338 5325 5314 5303 5293 5284 5278 5270 5265 5259 5254 5251 5250 5250 5251 5253 5254
5501 5492 5481 5469 5468 5463 5456 5448 5438 5428 5422 5419 5413 5405 5398 5387 5373 5361 5353 5344 5331 5319 5309 5299 5292 5284 5276 5268 5260 5253 5248 5244 5241 5238 5238 5239 5239 5241
5485 5475 5468 5459 5454 5451 5445 5438 5428 5420 5412 5410 5402 5394 5384 5372 5361 5348 5336 5327 5319 5308 5298 5289 5283 5275 5268 5259 5250 5244 5240 5237 5233 5229 5227 5228 5229 5230
5476 5466 5457 5453 5446 5442 5434 5426 5419 5408 5398 5394 5389 5379 5368 5357 5346 5334 5325 5313 5306 5298 5288 5279 5274 5266 5259 5249 5241 5237 5233 5231 5226 5221 5219 5218 5218 5221
5465 5455 5446 5439 5435 5429 5423 5415 5405 5398 5388 5378 5374 5365 5356 5344 5330 5321 5313 5304 5296 5288 5280 5272 5265 5257 5250 5243 5236 5232 5229 5225 5222 5217 5213 5212 5212 5213
5454 5444 5435 5428 5424 5419 5411 5403 5394 5384 5375 5365 5357 5350 5339 5330 5315 5303 5294 5291 5285 5279 5269 5261 5253 5247 5242 5235 5231 5230 5228 5225 5218 5212 5210 5208 5208 5209
5443 5432 5424 5418 5413 5407 5401 5392 5380 5370 5357 5344 5337 5327 5319 5307 5296 5288 5279 5275 5272 5265 5255 5251 5244 5239 5233 5229 5227 5227 5226 5223 5217 5211 5205 5204 5205 5206
5429 5421 5414 5408 5404 5399 5392 5384 5373 5361 5350 5332 5325 5313 5305 5292 5283 5272 5266 5260 5253 5255 5242 5238 5232 5229 5225 5222 5222 5220 5217 5214 5211 5208 5204 5202 5203 5204
5414 5406 5401 5398 5391 5386 5379 5371 5362 5349 5335 5326 5312 5306 5294 5287 5274 5264 5254 5248 5245 5241 5231 5226 5223 5221 5219 5218 5216 5214 5211 5208 5207 5204 5201 5201 5202 5204
5406 5400 5393 5386 5378 5368 5362 5356 5349 5336 5324 5309 5295 5287 5279 5276 5266 5256 5248 5241 5236 5232 5223 5215 5216 5215 5216 5214 5212 5209 5207 5204 5202 5201 5200 5200 5202 5205
5394 5385 5377 5369 5359 5347 5338 5330 5328 5324 5311 5298 5286 5276 5268 5263 5255 5244 5234 5226 5221 5222 5216 5209 5211 5209 5210 5208 5206 5204 5202 5200 5198 5197 5197 5199 5202 5206
5376 5368 5357 5347 5338 5325 5312 5303 5299 5293 5284 5276 5271 5263 5255 5245 5238 5232 5226 5217 5208 5208 5214 5202 5203 5200 5197 5203 5201 5199 5197 5195 5195 5195 5196 5198 5201 5205
5358 5351 5340 5327 5318 5308 5296 5286 5278 5270 5264 5254 5250 5245 5241 5235 5229 5224 5220 5213 5206 5205 5207 5199 5198 5195 5188 5193 5194 5192 5191 5192 5192 5193 5194 5197 5199 5202
5340 5331 5323 5312 5302 5294 5284 5276 5266 5254 5247 5241 5237 5234 5228 5224 5221 5218 5214 5211 5206 5201 5199 5196 5192 5190 5185 5186 5187 5187 5186 5187 5189 5191 5193 5195 5197 5201
5320 5312 5303 5294 5287 5281 5272 5263 5254 5245 5238 5233 5228 5225 5222 5218 5214 5211 5209 5207 5201 5197 5194 5192 5190 5189 5184 5182 5184 5183 5183 5183 5186 5188 5189 5191 5196 5199
5298 5290 5284 5276 5270 5262 5258 5249 5238 5232 5229 5226 5223 5218 5215 5211 5209 5205 5201 5197 5193 5190 5190 5190 5188 5186 5182 5181 5180 5180 5179 5178 5183 5185 5187 5192 5196 5196
5281 5274 5270 5261 5251 5242 5233 5224 5219 5214 5214 5217 5216 5212 5208 5205 5204 5200 5196 5193 5189 5186 5186 5186 5187 5186 5184 5181 5177 5178 5178 5179 5180 5181 5186 5190 5197 5197
5261 5255 5245 5233 5224 5217 5210 5206 5201 5198 5198 5195 5208 5204 5202 5200 5198 5195 5192 5189 5187 5184 5183 5182 5182 5182 5180 5180 5180 5178 5178 5178 5178 5181 5183 5189 5194 5197
5242 5233 5221 5212 5204 5196 5188 5183 5183 5179 5177 5179 5187 5192 5192 5191 5190 5190 5188 5187 5184 5182 5181 5179 5180 5176 5169 5166 5176 5177 5172 5174 5176 5177 5181 5187 5192 5198
5218 5209 5199 5191 5183 5176 5170 5166 5164 5161 5160 5160 5167 5180 5183 5183 5182 5184 5183 5183 5181 5180 5179 5179 5179 5179 5174 5167 5163 5171 5175 5172 5172 5177 5179 5186 5192 5196
5198 5188 5177 5169 5162 5154 5149 5146 5146 5142 5140 5142 5147 5157 5172 5178 5176 5177 5178 5180 5178 5179 5177 5178 5180 5179 5176 5172 5160 5165 5173 5175 5173 5172 5176 5179 5186 5191
5176 5167 5158 5150 5142 5136 5133 5128 5128 5125 5124 5127 5131 5138 5149 5160 5170 5169 5172 5177 5177 5176 5176 5176 5177 5176 5172 5169 5166 5161 5170 5173 5171 5171 5174 5177 5178 5179
5154 5147 5139 5131 5125 5118 5114 5111 5108 5107 5107 5111 5117 5123 5128 5139 5150 5162 5167 5172 5175 5173 5175 5173 5175 5174 5171 5170 5167 5164 5167 5169 5171 5169 5171 5176 5179 5182